timestamp,wind_dir_avg,wind_spd_max_dir,wind_spd_avg,wind_spd_gust,battery_voltage,lat,long
2017-11-10 00:00:00+00:00,31.0,37.0,7.28,8.41,,47.59359,-54.27349
2017-11-10 00:10:00+00:00,16.0,15.0,8.17,9.09,,47.59359,-54.27349
2017-11-10 00:20:00+00:00,20.0,20.0,8.11,9.68,,47.59359,-54.27349
2017-11-10 00:30:00+00:00,25.0,27.0,7.5,9.34,,47.59359,-54.27349
2017-11-10 00:40:00+00:00,34.0,37.0,8.09,9.53,,47.59359,-54.27349
2017-11-10 00:50:00+00:00,31.0,29.0,8.01,9.9,,47.59359,-54.27349
2017-11-10 01:00:00+00:00,32.0,22.0,7.77,9.08,,47.59359,-54.27349
2017-11-10 01:10:00+00:00,26.0,28.0,7.71,9.37,,47.59359,-54.27349
2017-11-10 01:20:00+00:00,31.0,30.0,7.53,8.4,,47.59359,-54.27349
2017-11-10 01:30:00+00:00,32.0,29.0,7.46,8.31,,47.59359,-54.27349
2017-11-10 01:40:00+00:00,27.0,26.0,7.95,8.73,,47.59359,-54.27349
2017-11-10 01:50:00+00:00,29.0,27.0,7.51,8.91,,47.59359,-54.27349
2017-11-10 02:00:00+00:00,21.0,26.0,7.08,8.73,,47.59359,-54.27349
2017-11-10 02:10:00+00:00,21.0,29.0,6.21,7.53,,47.59359,-54.27349
2017-11-10 02:20:00+00:00,41.0,38.0,7.51,8.43,,47.59359,-54.27349
2017-11-10 02:30:00+00:00,33.0,32.0,6.82,7.42,,47.59359,-54.27349
2017-11-10 02:40:00+00:00,32.0,30.0,7.1,7.75,,47.59359,-54.27349
2017-11-10 02:50:00+00:00,29.0,25.0,6.69,8.15,,47.59359,-54.27349
2017-11-10 03:00:00+00:00,26.0,31.0,6.41,7.32,,47.59359,-54.27349
2017-11-10 03:10:00+00:00,20.0,12.0,6.05,6.74,,47.59359,-54.27349
2017-11-10 03:20:00+00:00,30.0,23.0,6.09,7.57,,47.59359,-54.27349
2017-11-10 03:30:00+00:00,20.0,17.0,7.21,9.07,,47.59359,-54.27349
2017-11-10 03:40:00+00:00,17.0,12.0,7.59,9.34,,47.59359,-54.27349
2017-11-10 03:50:00+00:00,30.0,28.0,7.17,8.32,,47.59359,-54.27349
2017-11-10 04:00:00+00:00,29.0,31.0,7.01,7.97,,47.59359,-54.27349
2017-11-10 04:10:00+00:00,28.0,31.0,5.04,5.83,,47.59359,-54.27349
2017-11-10 04:20:00+00:00,31.0,28.0,7.23,7.9,,47.59359,-54.27349
2017-11-10 04:30:00+00:00,23.0,26.0,5.98,6.74,,47.59359,-54.27349
2017-11-10 04:40:00+00:00,30.0,33.0,7.07,7.86,,47.59359,-54.27349
2017-11-10 04:50:00+00:00,31.0,28.0,5.47,6.3,,47.59359,-54.27349
2017-11-10 05:00:00+00:00,25.0,35.0,5.54,6.63,,47.59359,-54.27349
2017-11-10 05:10:00+00:00,30.0,31.0,5.53,6.75,,47.59359,-54.27349
2017-11-10 05:20:00+00:00,20.0,30.0,3.5,4.64,,47.59359,-54.27349
2017-11-10 05:30:00+00:00,17.0,6.0,4.68,5.68,,47.59359,-54.27349
2017-11-10 05:40:00+00:00,44.0,47.0,5.29,6.65,,47.59359,-54.27349
2017-11-10 05:50:00+00:00,40.0,42.0,5.03,5.81,,47.59359,-54.27349
2017-11-10 06:00:00+00:00,32.0,33.0,3.47,4.17,,47.59359,-54.27349
2017-11-10 06:10:00+00:00,29.0,35.0,4.14,4.8,,47.59359,-54.27349
2017-11-10 06:20:00+00:00,34.0,13.0,4.95,6.37,,47.59359,-54.27349
2017-11-10 06:30:00+00:00,45.0,45.0,4.98,5.91,,47.59359,-54.27349
2017-11-10 06:40:00+00:00,20.0,40.0,3.96,4.58,,47.59359,-54.27349
2017-11-10 06:50:00+00:00,9.0,8.0,2.88,3.86,,47.59359,-54.27349
2017-11-10 07:00:00+00:00,2.0,6.0,3.59,4.95,,47.59359,-54.27349
2017-11-10 07:10:00+00:00,37.0,38.0,4.43,5.21,,47.59359,-54.27349
2017-11-10 07:20:00+00:00,72.0,61.0,4.0,4.82,,47.59359,-54.27349
2017-11-10 07:30:00+00:00,33.0,52.0,2.76,3.62,,47.59359,-54.27349
2017-11-10 07:40:00+00:00,62.0,65.0,2.82,4.56,,47.59359,-54.27349
2017-11-10 07:50:00+00:00,54.0,48.0,2.23,3.71,,47.59359,-54.27349
2017-11-10 08:00:00+00:00,358.0,352.0,3.27,4.0,,47.59359,-54.27349
2017-11-10 08:10:00+00:00,336.0,343.0,2.17,2.66,,47.59359,-54.27349
2017-11-10 08:20:00+00:00,15.0,19.0,2.91,3.63,,47.59359,-54.27349
2017-11-10 08:30:00+00:00,23.0,43.0,1.15,1.85,,47.59359,-54.27349
2017-11-10 08:40:00+00:00,25.0,15.0,0.58,1.44,,47.59359,-54.27349
2017-11-10 08:50:00+00:00,51.0,56.0,2.61,3.3,,47.59359,-54.27349
2017-11-10 09:00:00+00:00,343.0,344.0,3.89,4.86,,47.59359,-54.27349
2017-11-10 09:10:00+00:00,348.0,357.0,4.22,5.76,,47.59359,-54.27349
2017-11-10 09:20:00+00:00,355.0,351.0,3.85,4.43,,47.59359,-54.27349
2017-11-10 09:30:00+00:00,349.0,345.0,4.09,4.43,,47.59359,-54.27349
2017-11-10 09:40:00+00:00,351.0,342.0,4.18,4.83,,47.59359,-54.27349
2017-11-10 09:50:00+00:00,336.0,342.0,3.83,4.69,,47.59359,-54.27349
2017-11-10 10:00:00+00:00,336.0,331.0,3.29,4.1,,47.59359,-54.27349
2017-11-10 10:10:00+00:00,2.0,6.0,2.89,4.08,,47.59359,-54.27349
2017-11-10 10:20:00+00:00,356.0,352.0,3.41,4.28,,47.59359,-54.27349
2017-11-10 10:30:00+00:00,338.0,338.0,3.23,3.88,,47.59359,-54.27349
2017-11-10 10:40:00+00:00,333.0,343.0,2.96,3.91,,47.59359,-54.27349
2017-11-10 10:50:00+00:00,319.0,319.0,3.55,4.35,,47.59359,-54.27349
2017-11-10 11:00:00+00:00,345.0,344.0,3.42,4.1,,47.59359,-54.27349
2017-11-10 11:10:00+00:00,345.0,350.0,3.49,4.31,,47.59359,-54.27349
2017-11-10 11:20:00+00:00,3.0,1.0,3.3,4.08,,47.59359,-54.27349
2017-11-10 11:30:00+00:00,9.0,10.0,2.95,3.55,,47.59359,-54.27349
2017-11-10 11:40:00+00:00,330.0,338.0,2.64,3.26,,47.59359,-54.27349
2017-11-10 11:50:00+00:00,324.0,331.0,3.18,4.09,,47.59359,-54.27349
2017-11-10 12:00:00+00:00,295.0,292.0,1.4,1.68,,47.59359,-54.27349
2017-11-10 12:10:00+00:00,331.0,330.0,0.78,1.38,,47.59359,-54.27349
2017-11-10 12:20:00+00:00,61.0,66.0,1.11,1.6,,47.59359,-54.27349
2017-11-10 12:30:00+00:00,127.0,134.0,1.79,2.12,,47.59359,-54.27349
2017-11-10 12:40:00+00:00,71.0,64.0,0.55,1.29,,47.59359,-54.27349
2017-11-10 12:50:00+00:00,210.0,225.0,1.21,1.89,,47.59359,-54.27349
2017-11-10 13:00:00+00:00,157.0,152.0,0.39,0.8,,47.59359,-54.27349
2017-11-10 13:10:00+00:00,178.0,179.0,2.64,3.28,,47.59359,-54.27349
2017-11-10 13:20:00+00:00,273.0,260.0,0.8,1.17,,47.59359,-54.27349
2017-11-10 13:30:00+00:00,212.0,215.0,1.37,1.78,,47.59359,-54.27349
2017-11-10 13:40:00+00:00,91.0,81.0,1.39,2.13,,47.59359,-54.27349
2017-11-10 13:50:00+00:00,108.0,103.0,2.15,3.08,,47.59359,-54.27349
2017-11-10 14:00:00+00:00,132.0,127.0,2.36,2.83,,47.59359,-54.27349
2017-11-10 14:10:00+00:00,137.0,138.0,3.56,4.18,,47.59359,-54.27349
2017-11-10 14:20:00+00:00,188.0,187.0,3.84,5.42,,47.59359,-54.27349
2017-11-10 14:30:00+00:00,187.0,165.0,2.31,2.76,,47.59359,-54.27349
2017-11-10 14:40:00+00:00,160.0,157.0,3.35,4.71,,47.59359,-54.27349
2017-11-10 14:50:00+00:00,169.0,169.0,3.73,4.84,,47.59359,-54.27349
2017-11-10 15:00:00+00:00,252.0,266.0,1.86,2.54,,47.59359,-54.27349
2017-11-10 15:10:00+00:00,221.0,212.0,1.21,1.8,,47.59359,-54.27349
2017-11-10 15:20:00+00:00,265.0,271.0,2.62,3.15,,47.59359,-54.27349
2017-11-10 15:30:00+00:00,295.0,306.0,1.76,2.15,,47.59359,-54.27349
2017-11-10 15:40:00+00:00,164.0,164.0,4.07,4.93,,47.59359,-54.27349
2017-11-10 15:50:00+00:00,179.0,182.0,4.02,4.91,,47.59359,-54.27349
2017-11-10 16:00:00+00:00,164.0,163.0,5.17,6.34,,47.59359,-54.27349
2017-11-10 16:10:00+00:00,199.0,198.0,4.46,4.8,,47.59359,-54.27349
2017-11-10 16:20:00+00:00,186.0,180.0,3.13,4.19,,47.59359,-54.27349
2017-11-10 16:30:00+00:00,207.0,205.0,3.97,4.32,,47.59359,-54.27349
2017-11-10 16:40:00+00:00,193.0,185.0,1.62,2.14,,47.59359,-54.27349
2017-11-10 16:50:00+00:00,166.0,171.0,3.6,4.19,,47.59359,-54.27349
2017-11-10 17:00:00+00:00,159.0,157.0,5.14,5.92,,47.59359,-54.27349
2017-11-10 17:10:00+00:00,159.0,174.0,3.81,4.7,,47.59359,-54.27349
2017-11-10 17:20:00+00:00,165.0,171.0,2.51,2.97,,47.59359,-54.27349
2017-11-10 17:30:00+00:00,198.0,200.0,5.22,6.0,,47.59359,-54.27349
2017-11-10 17:40:00+00:00,204.0,195.0,4.54,5.67,,47.59359,-54.27349
2017-11-10 17:50:00+00:00,201.0,200.0,6.47,7.69,,47.59359,-54.27349
2017-11-10 18:00:00+00:00,188.0,181.0,4.47,5.92,,47.59359,-54.27349
2017-11-10 18:10:00+00:00,182.0,195.0,5.73,7.37,,47.59359,-54.27349
2017-11-10 18:20:00+00:00,205.0,205.0,5.37,6.05,,47.59359,-54.27349
2017-11-10 18:30:00+00:00,191.0,190.0,6.88,7.91,,47.59359,-54.27349
2017-11-10 18:40:00+00:00,183.0,182.0,5.09,6.0,,47.59359,-54.27349
2017-11-10 18:50:00+00:00,181.0,185.0,6.02,6.85,,47.59359,-54.27349
2017-11-10 19:00:00+00:00,184.0,188.0,6.46,8.12,,47.59359,-54.27349
2017-11-10 19:10:00+00:00,203.0,198.0,6.6,7.51,,47.59359,-54.27349
2017-11-10 19:20:00+00:00,180.0,176.0,6.28,7.03,,47.59359,-54.27349
2017-11-10 19:30:00+00:00,187.0,189.0,6.79,7.75,,47.59359,-54.27349
2017-11-10 19:40:00+00:00,204.0,203.0,7.84,8.98,,47.59359,-54.27349
2017-11-10 19:50:00+00:00,198.0,196.0,7.53,8.23,,47.59359,-54.27349
2017-11-10 20:00:00+00:00,185.0,182.0,6.6,7.9,,47.59359,-54.27349
2017-11-10 20:10:00+00:00,181.0,175.0,5.72,6.61,,47.59359,-54.27349
2017-11-10 20:20:00+00:00,166.0,163.0,5.11,6.3,,47.59359,-54.27349
2017-11-10 20:30:00+00:00,170.0,169.0,6.04,7.12,,47.59359,-54.27349
2017-11-10 20:40:00+00:00,167.0,169.0,7.95,9.04,,47.59359,-54.27349
2017-11-10 20:50:00+00:00,170.0,171.0,7.47,8.9,,47.59359,-54.27349
2017-11-10 21:00:00+00:00,174.0,173.0,8.48,9.74,,47.59359,-54.27349
2017-11-10 21:10:00+00:00,166.0,160.0,5.64,6.65,,47.59359,-54.27349
2017-11-10 21:20:00+00:00,173.0,176.0,7.08,8.2,,47.59359,-54.27349
2017-11-10 21:30:00+00:00,183.0,205.0,6.35,7.06,,47.59359,-54.27349
2017-11-10 21:40:00+00:00,169.0,164.0,6.11,6.8,,47.59359,-54.27349
2017-11-10 21:50:00+00:00,170.0,172.0,6.94,8.02,,47.59359,-54.27349
2017-11-10 22:00:00+00:00,173.0,171.0,8.28,9.42,,47.59359,-54.27349
2017-11-10 22:10:00+00:00,163.0,161.0,9.83,10.88,,47.59359,-54.27349
2017-11-10 22:20:00+00:00,156.0,169.0,6.3,7.55,,47.59359,-54.27349
2017-11-10 22:30:00+00:00,164.0,160.0,8.46,9.73,,47.59359,-54.27349
2017-11-10 22:40:00+00:00,153.0,154.0,7.73,9.14,,47.59359,-54.27349
2017-11-10 22:50:00+00:00,153.0,159.0,8.61,9.76,,47.59359,-54.27349
2017-11-10 23:00:00+00:00,153.0,155.0,8.22,9.88,,47.59359,-54.27349
2017-11-10 23:10:00+00:00,145.0,140.0,11.1,12.84,,47.59359,-54.27349
2017-11-10 23:20:00+00:00,159.0,164.0,10.22,12.88,,47.59359,-54.27349
2017-11-10 23:30:00+00:00,151.0,150.0,10.37,12.05,,47.59359,-54.27349
2017-11-10 23:40:00+00:00,162.0,169.0,8.28,9.74,,47.59359,-54.27349
2017-11-10 23:50:00+00:00,153.0,153.0,6.36,7.78,,47.59359,-54.27349
